owner,sensor,date,latitude,longitude,vertical_datum,wind_speed,wind_to_direction,wind_speed_of_gust,qcFlag 
TCOON,ioos:station:TCOON:003:1,2008-02-01T00:00:00Z,26.8015,-97.4706,0.0,10.1,359.0,11.9,'11111222,11111222,11111222' 
TCOON,ioos:station:TCOON:003:1,2008-02-01T04:00:00Z,26.8015,-97.4706,0.0,4.4,352.0,5.0,'11111222,11111222,11111222' 
TCOON,ioos:station:TCOON:003:1,2008-02-01T05:00:00Z,26.8015,-97.4706,0.0,4.3,352.0,5.5,'11111222,11111222,11111222' 
TCOON,ioos:station:TCOON:003:1,2008-02-01T06:00:00Z,26.8015,-97.4706,0.0,4.0,333.0,4.7,'11111222,11111222,11111222' 
TCOON,ioos:station:TCOON:003:1,2008-02-01T07:00:00Z,26.8015,-97.4706,0.0,3.4,301.0,4.1,'11111222,11111222,11111222' 
TCOON,ioos:station:TCOON:003:1,2008-02-01T08:00:00Z,26.8015,-97.4706,0.0,2.3,284.0,2.8,'11111222,11111222,11111222' 
TCOON,ioos:station:TCOON:003:1,2008-02-01T09:00:00Z,26.8015,-97.4706,0.0,3.5,298.0,4.0,'11111222,11111222,11111222' 
TCOON,ioos:station:TCOON:003:1,2008-02-01T10:00:00Z,26.8015,-97.4706,0.0,3.5,309.0,4.0,'11111222,11111222,11111222' 
TCOON,ioos:station:TCOON:003:1,2008-02-01T11:00:00Z,26.8015,-97.4706,0.0,3.2,306.0,3.7,'11111222,11111222,11111222' 
TCOON,ioos:station:TCOON:003:1,2008-02-01T13:00:00Z,26.8015,-97.4706,0.0,3.3,330.0,3.7,'11111222,11111222,11111222' 
TCOON,ioos:station:TCOON:003:1,2008-02-01T14:00:00Z,26.8015,-97.4706,0.0,3.3,328.0,3.7,'11111222,11111222,11111222' 
TCOON,ioos:station:TCOON:003:1,2008-02-01T15:00:00Z,26.8015,-97.4706,0.0,2.7,328.0,3.2,'11111222,11111222,11111222' 
TCOON,ioos:station:TCOON:003:1,2008-02-01T16:00:00Z,26.8015,-97.4706,0.0,1.8,98.0,2.2,'11111222,11111222,11111222' 
TCOON,ioos:station:TCOON:003:1,2008-02-01T17:00:00Z,26.8015,-97.4706,0.0,2.5,127.0,3.1,'11111222,11111222,11111222' 
TCOON,ioos:station:TCOON:003:1,2008-02-01T18:00:00Z,26.8015,-97.4706,0.0,4.1,119.0,4.9,'11111222,11111222,11111222' 
TCOON,ioos:station:TCOON:003:1,2008-02-01T19:00:00Z,26.8015,-97.4706,0.0,4.0,121.0,4.7,'11111222,11111222,11111222' 
TCOON,ioos:station:TCOON:003:1,2008-02-01T20:00:00Z,26.8015,-97.4706,0.0,4.8,134.0,5.5,'11111222,11111222,11111222' 
TCOON,ioos:station:TCOON:003:1,2008-02-01T21:00:00Z,26.8015,-97.4706,0.0,6.2,129.0,7.2,'11111222,11111222,11111222' 
TCOON,ioos:station:TCOON:003:1,2008-02-01T22:00:00Z,26.8015,-97.4706,0.0,6.7,140.0,7.6,'11111222,11111222,11111222' 
TCOON,ioos:station:TCOON:003:1,2008-02-01T23:00:00Z,26.8015,-97.4706,0.0,5.3,143.0,6.3,'11111222,11111222,11111222' 
TCOON,ioos:station:TCOON:003:1,2008-02-02T00:00:00Z,26.8015,-97.4706,0.0,5.1,142.0,5.8,'11111222,11111222,11111222' 
TCOON,ioos:station:TCOON:003:1,2008-02-02T01:00:00Z,26.8015,-97.4706,0.0,3.7,147.0,4.1,'11111222,11111222,11111222' 
TCOON,ioos:station:TCOON:003:1,2008-02-02T02:00:00Z,26.8015,-97.4706,0.0,3.1,136.0,3.7,'11111222,11111222,11111222' 
TCOON,ioos:station:TCOON:003:1,2008-02-02T03:00:00Z,26.8015,-97.4706,0.0,3.2,127.0,3.5,'11111222,11111222,11111222' 
TCOON,ioos:station:TCOON:003:1,2008-02-02T04:00:00Z,26.8015,-97.4706,0.0,4.1,147.0,4.9,'11111222,11111222,11111222' 
TCOON,ioos:station:TCOON:003:1,2008-02-02T05:00:00Z,26.8015,-97.4706,0.0,3.8,156.0,4.4,'11111222,11111222,11111222' 
TCOON,ioos:station:TCOON:003:1,2008-02-02T06:00:00Z,26.8015,-97.4706,0.0,5.1,159.0,5.9,'11111222,11111222,11111222' 
TCOON,ioos:station:TCOON:003:1,2008-02-02T07:00:00Z,26.8015,-97.4706,0.0,4.8,163.0,5.4,'11111222,11111222,11111222' 
TCOON,ioos:station:TCOON:003:1,2008-02-02T08:00:00Z,26.8015,-97.4706,0.0,4.3,163.0,4.9,'11111222,11111222,11111222' 
TCOON,ioos:station:TCOON:003:1,2008-02-02T09:00:00Z,26.8015,-97.4706,0.0,4.3,165.0,5.1,'11111222,11111222,11111222' 
TCOON,ioos:station:TCOON:003:1,2008-02-02T10:00:00Z,26.8015,-97.4706,0.0,3.3,159.0,3.8,'11111222,11111222,11111222' 
TCOON,ioos:station:TCOON:003:1,2008-02-02T11:00:00Z,26.8015,-97.4706,0.0,3.9,153.0,4.3,'11111222,11111222,11111222' 
TCOON,ioos:station:TCOON:003:1,2008-02-02T12:00:00Z,26.8015,-97.4706,0.0,3.7,144.0,4.0,'11111222,11111222,11111222' 
TCOON,ioos:station:TCOON:003:1,2008-02-02T13:00:00Z,26.8015,-97.4706,0.0,3.9,173.0,4.5,'11111222,11111222,11111222' 
TCOON,ioos:station:TCOON:003:1,2008-02-02T14:00:00Z,26.8015,-97.4706,0.0,4.3,168.0,4.8,'11111222,11111222,11111222' 
TCOON,ioos:station:TCOON:003:1,2008-02-02T15:00:00Z,26.8015,-97.4706,0.0,4.0,178.0,4.5,'11111222,11111222,11111222' 
TCOON,ioos:station:TCOON:003:1,2008-02-02T16:00:00Z,26.8015,-97.4706,0.0,4.9,167.0,5.9,'11111222,11111222,11111222' 
TCOON,ioos:station:TCOON:003:1,2008-02-02T17:00:00Z,26.8015,-97.4706,0.0,8.3,164.0,9.7,'11111222,11111222,11111222' 
TCOON,ioos:station:TCOON:003:1,2008-02-02T18:00:00Z,26.8015,-97.4706,0.0,10.0,166.0,11.5,'11111222,11111222,11111222' 
TCOON,ioos:station:TCOON:003:1,2008-02-02T19:00:00Z,26.8015,-97.4706,0.0,7.7,155.0,9.1,'11111222,11111222,11111222' 
TCOON,ioos:station:TCOON:003:1,2008-02-02T20:00:00Z,26.8015,-97.4706,0.0,7.2,137.0,8.2,'11111222,11111222,11111222' 
TCOON,ioos:station:TCOON:003:1,2008-02-02T21:00:00Z,26.8015,-97.4706,0.0,6.8,137.0,7.8,'11111222,11111222,11111222' 
TCOON,ioos:station:TCOON:003:1,2008-02-02T22:00:00Z,26.8015,-97.4706,0.0,8.3,137.0,9.1,'11111222,11111222,11111222' 
TCOON,ioos:station:TCOON:003:1,2008-02-02T23:00:00Z,26.8015,-97.4706,0.0,6.2,119.0,7.3,'11111222,11111222,11111222' 
TCOON,ioos:station:TCOON:003:1,2008-02-03T00:00:00Z,26.8015,-97.4706,0.0,5.7,118.0,6.8,'11111222,11111222,11111222' 
TCOON,ioos:station:TCOON:003:1,2008-02-03T01:00:00Z,26.8015,-97.4706,0.0,6.0,129.0,7.1,'11111222,11111222,11111222' 
TCOON,ioos:station:TCOON:003:1,2008-02-03T02:00:00Z,26.8015,-97.4706,0.0,5.7,129.0,6.4,'11111222,11111222,11111222' 
TCOON,ioos:station:TCOON:003:1,2008-02-03T03:00:00Z,26.8015,-97.4706,0.0,4.9,133.0,5.7,'11111222,11111222,11111222' 
TCOON,ioos:station:TCOON:003:1,2008-02-03T04:00:00Z,26.8015,-97.4706,0.0,3.9,138.0,4.3,'11111222,11111222,11111222' 
TCOON,ioos:station:TCOON:003:1,2008-02-03T05:00:00Z,26.8015,-97.4706,0.0,2.4,169.0,2.7,'11111222,11111222,11111222' 
TCOON,ioos:station:TCOON:003:1,2008-02-03T06:00:00Z,26.8015,-97.4706,0.0,4.2,167.0,4.8,'11111222,11111222,11111222' 
TCOON,ioos:station:TCOON:003:1,2008-02-03T07:00:00Z,26.8015,-97.4706,0.0,4.7,173.0,5.2,'11111222,11111222,11111222' 
TCOON,ioos:station:TCOON:003:1,2008-02-03T08:00:00Z,26.8015,-97.4706,0.0,3.8,174.0,4.3,'11111222,11111222,11111222' 
TCOON,ioos:station:TCOON:003:1,2008-02-03T09:00:00Z,26.8015,-97.4706,0.0,2.5,183.0,2.8,'11111222,11111222,11111222' 
TCOON,ioos:station:TCOON:003:1,2008-02-03T10:00:00Z,26.8015,-97.4706,0.0,1.8,188.0,1.9,'11111222,11111222,11111222' 
TCOON,ioos:station:TCOON:003:1,2008-02-03T11:00:00Z,26.8015,-97.4706,0.0,2.2,184.0,2.3,'11111222,11111222,11111222' 
TCOON,ioos:station:TCOON:003:1,2008-02-03T12:00:00Z,26.8015,-97.4706,0.0,2.4,167.0,2.5,'11111222,11111222,11111222' 
TCOON,ioos:station:TCOON:003:1,2008-02-03T13:00:00Z,26.8015,-97.4706,0.0,3.9,191.0,4.7,'11111222,11111222,11111222' 
TCOON,ioos:station:TCOON:003:1,2008-02-03T14:00:00Z,26.8015,-97.4706,0.0,6.2,180.0,6.9,'11111222,11111222,11111222' 
TCOON,ioos:station:TCOON:003:1,2008-02-03T15:00:00Z,26.8015,-97.4706,0.0,7.5,172.0,8.8,'11111222,11111222,11111222' 
TCOON,ioos:station:TCOON:003:1,2008-02-03T16:00:00Z,26.8015,-97.4706,0.0,7.5,165.0,8.8,'11111222,11111222,11111222' 
TCOON,ioos:station:TCOON:003:1,2008-02-03T17:00:00Z,26.8015,-97.4706,0.0,8.0,161.0,9.2,'11111222,11111222,11111222' 
TCOON,ioos:station:TCOON:003:1,2008-02-03T18:00:00Z,26.8015,-97.4706,0.0,9.8,162.0,11.8,'11111222,11111222,11111222' 
TCOON,ioos:station:TCOON:003:1,2008-02-03T19:00:00Z,26.8015,-97.4706,0.0,10.0,164.0,12.2,'11111222,11111222,11111222' 
TCOON,ioos:station:TCOON:003:1,2008-02-03T20:00:00Z,26.8015,-97.4706,0.0,9.7,165.0,11.2,'11111222,11111222,11111222' 
TCOON,ioos:station:TCOON:003:1,2008-02-03T21:00:00Z,26.8015,-97.4706,0.0,8.9,163.0,10.7,'11111222,11111222,11111222' 
TCOON,ioos:station:TCOON:003:1,2008-02-03T22:00:00Z,26.8015,-97.4706,0.0,10.9,165.0,12.5,'11111222,11111222,11111222' 
TCOON,ioos:station:TCOON:003:1,2008-02-03T23:00:00Z,26.8015,-97.4706,0.0,9.3,164.0,11.4,'11111222,11111222,11111222' 
TCOON,ioos:station:TCOON:003:1,2008-02-04T00:00:00Z,26.8015,-97.4706,0.0,8.3,178.0,9.4,'11111222,11111222,11111222' 
TCOON,ioos:station:TCOON:003:1,2008-02-04T01:00:00Z,26.8015,-97.4706,0.0,8.3,175.0,9.6,'11111222,11111222,11111222' 
TCOON,ioos:station:TCOON:003:1,2008-02-04T02:00:00Z,26.8015,-97.4706,0.0,8.0,178.0,8.8,'11111222,11111222,11111222' 
TCOON,ioos:station:TCOON:003:1,2008-02-04T03:00:00Z,26.8015,-97.4706,0.0,7.2,174.0,8.3,'11111222,11111222,11111222' 
TCOON,ioos:station:TCOON:003:1,2008-02-04T04:00:00Z,26.8015,-97.4706,0.0,7.5,177.0,8.4,'11111222,11111222,11111222' 
TCOON,ioos:station:TCOON:003:1,2008-02-04T05:00:00Z,26.8015,-97.4706,0.0,6.4,174.0,7.5,'11111222,11111222,11111222' 
TCOON,ioos:station:TCOON:003:1,2008-02-04T06:00:00Z,26.8015,-97.4706,0.0,8.0,172.0,9.2,'11111222,11111222,11111222' 
TCOON,ioos:station:TCOON:003:1,2008-02-04T07:00:00Z,26.8015,-97.4706,0.0,7.7,178.0,8.8,'11111222,11111222,11111222' 
TCOON,ioos:station:TCOON:003:1,2008-02-04T08:00:00Z,26.8015,-97.4706,0.0,8.4,178.0,9.6,'11111222,11111222,11111222' 
TCOON,ioos:station:TCOON:003:1,2008-02-04T09:00:00Z,26.8015,-97.4706,0.0,8.0,179.0,9.2,'11111222,11111222,11111222' 
TCOON,ioos:station:TCOON:003:1,2008-02-04T10:00:00Z,26.8015,-97.4706,0.0,8.4,186.0,10.5,'11111222,11111222,11111222' 
TCOON,ioos:station:TCOON:003:1,2008-02-04T11:00:00Z,26.8015,-97.4706,0.0,8.8,177.0,10.1,'11111222,11111222,11111222' 
TCOON,ioos:station:TCOON:003:1,2008-02-04T12:00:00Z,26.8015,-97.4706,0.0,8.7,186.0,9.9,'11111222,11111222,11111222' 
TCOON,ioos:station:TCOON:003:1,2008-02-04T13:00:00Z,26.8015,-97.4706,0.0,10.4,185.0,12.4,'11111222,11111222,11111222' 
TCOON,ioos:station:TCOON:003:1,2008-02-04T14:00:00Z,26.8015,-97.4706,0.0,10.2,177.0,12.0,'11111222,11111222,11111222' 
TCOON,ioos:station:TCOON:003:1,2008-02-04T15:00:00Z,26.8015,-97.4706,0.0,11.3,189.0,14.2,'11111222,11111222,11111222' 
TCOON,ioos:station:TCOON:003:1,2008-02-04T16:00:00Z,26.8015,-97.4706,0.0,11.5,190.0,13.7,'11111222,11111222,11111222' 
TCOON,ioos:station:TCOON:003:1,2008-02-04T17:00:00Z,26.8015,-97.4706,0.0,13.5,192.0,16.5,'11111222,11111222,11111222' 
TCOON,ioos:station:TCOON:003:1,2008-02-04T18:00:00Z,26.8015,-97.4706,0.0,10.2,172.0,12.8,'11111222,11111222,11111222' 
TCOON,ioos:station:TCOON:003:1,2008-02-04T19:00:00Z,26.8015,-97.4706,0.0,10.0,169.0,11.5,'11111222,11111222,11111222' 
TCOON,ioos:station:TCOON:003:1,2008-02-04T20:00:00Z,26.8015,-97.4706,0.0,10.6,166.0,12.3,'11111222,11111222,11111222' 
TCOON,ioos:station:TCOON:003:1,2008-02-04T21:00:00Z,26.8015,-97.4706,0.0,12.1,166.0,14.2,'11111222,11111222,11111222' 
TCOON,ioos:station:TCOON:003:1,2008-02-04T22:00:00Z,26.8015,-97.4706,0.0,12.0,170.0,14.2,'11111222,11111222,11111222' 
TCOON,ioos:station:TCOON:003:1,2008-02-04T23:00:00Z,26.8015,-97.4706,0.0,11.2,174.0,13.2,'11111222,11111222,11111222' 
TCOON,ioos:station:TCOON:003:1,2008-02-05T00:00:00Z,26.8015,-97.4706,0.0,10.0,177.0,12.8,'11111222,11111222,11111222' 
TCOON,ioos:station:TCOON:003:1,2008-02-05T01:00:00Z,26.8015,-97.4706,0.0,10.8,176.0,12.3,'11111222,11111222,11111222' 
TCOON,ioos:station:TCOON:003:1,2008-02-05T02:00:00Z,26.8015,-97.4706,0.0,11.4,174.0,12.9,'11111222,11111222,11111222' 
TCOON,ioos:station:TCOON:003:1,2008-02-05T03:00:00Z,26.8015,-97.4706,0.0,15.3,176.0,18.0,'11111222,11111222,11111222' 
TCOON,ioos:station:TCOON:003:1,2008-02-05T04:00:00Z,26.8015,-97.4706,0.0,14.0,177.0,17.3,'11111222,11111222,11111222' 
TCOON,ioos:station:TCOON:003:1,2008-02-05T05:00:00Z,26.8015,-97.4706,0.0,12.3,175.0,14.5,'11111222,11111222,11111222' 
TCOON,ioos:station:TCOON:003:1,2008-02-05T06:00:00Z,26.8015,-97.4706,0.0,10.9,178.0,12.8,'11111222,11111222,11111222' 
TCOON,ioos:station:TCOON:003:1,2008-02-05T07:00:00Z,26.8015,-97.4706,0.0,11.4,184.0,14.1,'11111222,11111222,11111222' 
TCOON,ioos:station:TCOON:003:1,2008-02-05T08:00:00Z,26.8015,-97.4706,0.0,10.9,179.0,12.9,'11111222,11111222,11111222' 
TCOON,ioos:station:TCOON:003:1,2008-02-05T09:00:00Z,26.8015,-97.4706,0.0,12.2,187.0,14.5,'11111222,11111222,11111222' 
TCOON,ioos:station:TCOON:003:1,2008-02-05T10:00:00Z,26.8015,-97.4706,0.0,11.6,186.0,13.2,'11111222,11111222,11111222' 
TCOON,ioos:station:TCOON:003:1,2008-02-05T11:00:00Z,26.8015,-97.4706,0.0,12.6,188.0,14.9,'11111222,11111222,11111222' 
TCOON,ioos:station:TCOON:003:1,2008-02-05T12:00:00Z,26.8015,-97.4706,0.0,11.9,188.0,13.4,'11111222,11111222,11111222' 
TCOON,ioos:station:TCOON:003:1,2008-02-05T13:00:00Z,26.8015,-97.4706,0.0,12.7,190.0,15.2,'11111222,11111222,11111222' 
TCOON,ioos:station:TCOON:003:1,2008-02-05T14:00:00Z,26.8015,-97.4706,0.0,12.4,193.0,14.5,'11111222,11111222,11111222' 
TCOON,ioos:station:TCOON:003:1,2008-02-05T15:00:00Z,26.8015,-97.4706,0.0,14.6,185.0,17.7,'11111222,11111222,11111222' 
TCOON,ioos:station:TCOON:003:1,2008-02-05T16:00:00Z,26.8015,-97.4706,0.0,14.3,197.0,17.2,'11111222,11111222,11111222' 
TCOON,ioos:station:TCOON:003:1,2008-02-05T17:00:00Z,26.8015,-97.4706,0.0,10.9,187.0,12.6,'11111222,11111222,11111222' 
TCOON,ioos:station:TCOON:003:1,2008-02-05T18:00:00Z,26.8015,-97.4706,0.0,9.4,194.0,12.5,'11111222,11111222,11111222' 
TCOON,ioos:station:TCOON:003:1,2008-02-05T19:00:00Z,26.8015,-97.4706,0.0,9.2,176.0,11.2,'11111222,11111222,11111222' 
TCOON,ioos:station:TCOON:003:1,2008-02-05T20:00:00Z,26.8015,-97.4706,0.0,8.2,171.0,9.7,'11111222,11111222,11111222' 
TCOON,ioos:station:TCOON:003:1,2008-02-05T21:00:00Z,26.8015,-97.4706,0.0,9.0,170.0,10.4,'11111222,11111222,11111222' 
TCOON,ioos:station:TCOON:003:1,2008-02-05T22:00:00Z,26.8015,-97.4706,0.0,9.9,168.0,11.1,'11111222,11111222,11111222' 
TCOON,ioos:station:TCOON:003:1,2008-02-05T23:00:00Z,26.8015,-97.4706,0.0,9.3,173.0,10.3,'11111222,11111222,11111222' 
TCOON,ioos:station:TCOON:003:1,2008-02-06T00:00:00Z,26.8015,-97.4706,0.0,7.5,173.0,8.6,'11111222,11111222,11111222' 
TCOON,ioos:station:TCOON:003:1,2008-02-06T01:00:00Z,26.8015,-97.4706,0.0,2.4,281.0,2.6,'11111222,11111222,11111222' 
TCOON,ioos:station:TCOON:003:1,2008-02-06T02:00:00Z,26.8015,-97.4706,0.0,11.2,351.0,12.6,'11111222,11111222,11111222' 
TCOON,ioos:station:TCOON:003:1,2008-02-06T03:00:00Z,26.8015,-97.4706,0.0,8.1,3.0,9.4,'11111222,11111222,11111222' 
TCOON,ioos:station:TCOON:003:1,2008-02-06T04:00:00Z,26.8015,-97.4706,0.0,6.2,356.0,6.9,'11111222,11111222,11111222' 
TCOON,ioos:station:TCOON:003:1,2008-02-06T05:00:00Z,26.8015,-97.4706,0.0,5.1,341.0,5.8,'11111222,11111222,11111222' 
TCOON,ioos:station:TCOON:003:1,2008-02-06T06:00:00Z,26.8015,-97.4706,0.0,8.2,355.0,9.3,'11111222,11111222,11111222' 
TCOON,ioos:station:TCOON:003:1,2008-02-06T07:00:00Z,26.8015,-97.4706,0.0,10.1,360.0,12.0,'11111222,11144222,11111222' 
TCOON,ioos:station:TCOON:003:1,2008-02-06T08:00:00Z,26.8015,-97.4706,0.0,9.8,4.0,11.7,'11111222,11111222,11111222' 
TCOON,ioos:station:TCOON:003:1,2008-02-06T09:00:00Z,26.8015,-97.4706,0.0,10.8,359.0,12.8,'11111222,11111222,11111222' 
TCOON,ioos:station:TCOON:003:1,2008-02-06T10:00:00Z,26.8015,-97.4706,0.0,7.9,352.0,9.0,'11111222,11111222,11111222' 
TCOON,ioos:station:TCOON:003:1,2008-02-06T11:00:00Z,26.8015,-97.4706,0.0,6.3,337.0,6.9,'11111222,11111222,11111222' 
TCOON,ioos:station:TCOON:003:1,2008-02-06T12:00:00Z,26.8015,-97.4706,0.0,6.7,1.0,7.8,'11111222,11111222,11111222' 
TCOON,ioos:station:TCOON:003:1,2008-02-06T13:00:00Z,26.8015,-97.4706,0.0,8.2,7.0,9.7,'11111222,11111222,11111222' 
TCOON,ioos:station:TCOON:003:1,2008-02-06T14:00:00Z,26.8015,-97.4706,0.0,8.2,11.0,9.4,'11111222,11111222,11111222' 
TCOON,ioos:station:TCOON:003:1,2008-02-06T15:00:00Z,26.8015,-97.4706,0.0,8.2,10.0,9.8,'11111222,11111222,11111222' 
TCOON,ioos:station:TCOON:003:1,2008-02-06T16:00:00Z,26.8015,-97.4706,0.0,4.9,14.0,6.8,'11111222,11111222,11111222' 
TCOON,ioos:station:TCOON:003:1,2008-02-06T17:00:00Z,26.8015,-97.4706,0.0,2.9,36.0,4.9,'11111222,11111222,11111222' 
TCOON,ioos:station:TCOON:003:1,2008-02-06T18:00:00Z,26.8015,-97.4706,0.0,2.6,27.0,3.9,'11111222,11111222,11111222' 
TCOON,ioos:station:TCOON:003:1,2008-02-06T19:00:00Z,26.8015,-97.4706,0.0,1.4,13.0,1.9,'11111222,11111222,11111222' 
TCOON,ioos:station:TCOON:003:1,2008-02-06T20:00:00Z,26.8015,-97.4706,0.0,1.7,29.0,2.1,'11111222,11111222,11111222' 
TCOON,ioos:station:TCOON:003:1,2008-02-06T21:00:00Z,26.8015,-97.4706,0.0,5.1,99.0,6.5,'11111222,11111222,11111222' 
TCOON,ioos:station:TCOON:003:1,2008-02-06T22:00:00Z,26.8015,-97.4706,0.0,5.9,91.0,7.0,'11111222,11111222,11111222' 
TCOON,ioos:station:TCOON:003:1,2008-02-06T23:00:00Z,26.8015,-97.4706,0.0,6.2,105.0,7.2,'11111222,11111222,11111222' 
TCOON,ioos:station:TCOON:003:1,2008-02-07T00:00:00Z,26.8015,-97.4706,0.0,4.9,103.0,5.6,'11111222,11111222,11111222' 
TCOON,ioos:station:TCOON:003:1,2008-02-07T01:00:00Z,26.8015,-97.4706,0.0,4.0,114.0,4.9,'11111222,11111222,11111222' 
TCOON,ioos:station:TCOON:003:1,2008-02-07T02:00:00Z,26.8015,-97.4706,0.0,4.4,125.0,5.2,'11111222,11111222,11111222' 
TCOON,ioos:station:TCOON:003:1,2008-02-07T03:00:00Z,26.8015,-97.4706,0.0,4.5,136.0,5.3,'11111222,11111222,11111222' 
TCOON,ioos:station:TCOON:003:1,2008-02-07T04:00:00Z,26.8015,-97.4706,0.0,4.9,142.0,6.0,'11111222,11111222,11111222' 
TCOON,ioos:station:TCOON:003:1,2008-02-07T05:00:00Z,26.8015,-97.4706,0.0,5.1,151.0,5.9,'11111222,11111222,11111222' 
TCOON,ioos:station:TCOON:003:1,2008-02-07T06:00:00Z,26.8015,-97.4706,0.0,4.8,149.0,5.8,'11111222,11111222,11111222' 
TCOON,ioos:station:TCOON:003:1,2008-02-07T07:00:00Z,26.8015,-97.4706,0.0,4.4,162.0,5.2,'11111222,11111222,11111222' 
TCOON,ioos:station:TCOON:003:1,2008-02-07T08:00:00Z,26.8015,-97.4706,0.0,5.7,158.0,6.7,'11111222,11111222,11111222' 
TCOON,ioos:station:TCOON:003:1,2008-02-07T09:00:00Z,26.8015,-97.4706,0.0,6.2,172.0,6.9,'11111222,11111222,11111222' 
TCOON,ioos:station:TCOON:003:1,2008-02-07T10:00:00Z,26.8015,-97.4706,0.0,4.0,213.0,4.6,'11111222,11111222,11111222' 
TCOON,ioos:station:TCOON:003:1,2008-02-07T11:00:00Z,26.8015,-97.4706,0.0,1.9,231.0,2.2,'11111222,11111222,11111222' 
TCOON,ioos:station:TCOON:003:1,2008-02-07T12:00:00Z,26.8015,-97.4706,0.0,0.9,268.0,1.3,'11111222,11111222,11111222' 
TCOON,ioos:station:TCOON:003:1,2008-02-07T13:00:00Z,26.8015,-97.4706,0.0,1.2,237.0,1.4,'11111222,11111222,11111222' 
TCOON,ioos:station:TCOON:003:1,2008-02-07T14:00:00Z,26.8015,-97.4706,0.0,1.9,296.0,2.2,'11111222,11111222,11111222' 
TCOON,ioos:station:TCOON:003:1,2008-02-07T15:00:00Z,26.8015,-97.4706,0.0,2.5,170.0,2.7,'11111222,11111222,11111222' 
TCOON,ioos:station:TCOON:003:1,2008-02-07T16:00:00Z,26.8015,-97.4706,0.0,6.0,167.0,6.8,'11111222,11111222,11111222' 
TCOON,ioos:station:TCOON:003:1,2008-02-07T17:00:00Z,26.8015,-97.4706,0.0,5.3,159.0,6.3,'11111222,11111222,11111222' 
TCOON,ioos:station:TCOON:003:1,2008-02-07T18:00:00Z,26.8015,-97.4706,0.0,4.3,152.0,4.9,'11111222,11111222,11111222' 
TCOON,ioos:station:TCOON:003:1,2008-02-07T19:00:00Z,26.8015,-97.4706,0.0,3.4,140.0,4.0,'11111222,11111222,11111222' 
TCOON,ioos:station:TCOON:003:1,2008-02-07T20:00:00Z,26.8015,-97.4706,0.0,5.4,115.0,6.3,'11111222,11111222,11111222' 
TCOON,ioos:station:TCOON:003:1,2008-02-07T21:00:00Z,26.8015,-97.4706,0.0,7.5,130.0,8.8,'11111222,11111222,11111222' 
TCOON,ioos:station:TCOON:003:1,2008-02-07T22:00:00Z,26.8015,-97.4706,0.0,7.3,129.0,8.4,'11111222,11111222,11111222' 
TCOON,ioos:station:TCOON:003:1,2008-02-07T23:00:00Z,26.8015,-97.4706,0.0,6.9,133.0,7.7,'11111222,11111222,11111222' 
TCOON,ioos:station:TCOON:003:1,2008-02-08T00:00:00Z,26.8015,-97.4706,0.0,6.7,150.0,7.7,'11111222,11111222,11111222' 
TCOON,ioos:station:TCOON:003:1,2008-02-08T01:00:00Z,26.8015,-97.4706,0.0,6.2,157.0,7.1,'11111222,11111222,11111222' 
TCOON,ioos:station:TCOON:003:1,2008-02-08T02:00:00Z,26.8015,-97.4706,0.0,5.1,162.0,6.2,'11111222,11111222,11111222' 
TCOON,ioos:station:TCOON:003:1,2008-02-08T03:00:00Z,26.8015,-97.4706,0.0,5.7,182.0,6.6,'11111222,11111222,11111222' 
TCOON,ioos:station:TCOON:003:1,2008-02-08T04:00:00Z,26.8015,-97.4706,0.0,2.9,210.0,3.5,'11111222,11111222,11111222' 
TCOON,ioos:station:TCOON:003:1,2008-02-08T05:00:00Z,26.8015,-97.4706,0.0,3.0,225.0,3.7,'11111222,11111222,11111222' 
TCOON,ioos:station:TCOON:003:1,2008-02-08T06:00:00Z,26.8015,-97.4706,0.0,2.7,216.0,3.1,'11111222,11111222,11111222' 
TCOON,ioos:station:TCOON:003:1,2008-02-08T07:00:00Z,26.8015,-97.4706,0.0,3.6,201.0,4.0,'11111222,11111222,11111222' 
TCOON,ioos:station:TCOON:003:1,2008-02-08T08:00:00Z,26.8015,-97.4706,0.0,3.8,191.0,4.3,'11111222,11111222,11111222' 
TCOON,ioos:station:TCOON:003:1,2008-02-08T09:00:00Z,26.8015,-97.4706,0.0,4.4,194.0,5.2,'11111222,11111222,11111222' 
TCOON,ioos:station:TCOON:003:1,2008-02-08T10:00:00Z,26.8015,-97.4706,0.0,5.1,194.0,6.0,'11111222,11111222,11111222' 
TCOON,ioos:station:TCOON:003:1,2008-02-08T11:00:00Z,26.8015,-97.4706,0.0,6.0,189.0,6.7,'11111222,11111222,11111222' 
TCOON,ioos:station:TCOON:003:1,2008-02-08T12:00:00Z,26.8015,-97.4706,0.0,6.5,194.0,7.4,'11111222,11111222,11111222' 
TCOON,ioos:station:TCOON:003:1,2008-02-08T13:00:00Z,26.8015,-97.4706,0.0,5.9,199.0,7.0,'11111222,11111222,11111222' 
TCOON,ioos:station:TCOON:003:1,2008-02-08T14:00:00Z,26.8015,-97.4706,0.0,6.3,188.0,6.9,'11111222,11111222,11111222' 
TCOON,ioos:station:TCOON:003:1,2008-02-08T15:00:00Z,26.8015,-97.4706,0.0,6.7,181.0,7.8,'11111222,11111222,11111222' 
TCOON,ioos:station:TCOON:003:1,2008-02-08T16:00:00Z,26.8015,-97.4706,0.0,9.6,203.0,11.3,'11111222,11111222,11111222' 
TCOON,ioos:station:TCOON:003:1,2008-02-08T17:00:00Z,26.8015,-97.4706,0.0,7.5,169.0,8.4,'11111222,11111222,11111222' 
TCOON,ioos:station:TCOON:003:1,2008-02-08T18:00:00Z,26.8015,-97.4706,0.0,8.4,162.0,9.8,'11111222,11111222,11111222' 
TCOON,ioos:station:TCOON:003:1,2008-02-08T19:00:00Z,26.8015,-97.4706,0.0,8.8,165.0,10.0,'11111222,11111222,11111222' 
TCOON,ioos:station:TCOON:003:1,2008-02-08T20:00:00Z,26.8015,-97.4706,0.0,9.5,166.0,11.3,'11111222,11111222,11111222' 
TCOON,ioos:station:TCOON:003:1,2008-02-08T21:00:00Z,26.8015,-97.4706,0.0,8.8,165.0,9.9,'11111222,11111222,11111222' 
TCOON,ioos:station:TCOON:003:1,2008-02-08T22:00:00Z,26.8015,-97.4706,0.0,9.6,158.0,11.4,'11111222,11111222,11111222' 
TCOON,ioos:station:TCOON:003:1,2008-02-08T23:00:00Z,26.8015,-97.4706,0.0,9.6,155.0,11.5,'11111222,11111222,11111222' 
TCOON,ioos:station:TCOON:003:1,2008-02-09T00:00:00Z,26.8015,-97.4706,0.0,8.8,160.0,10.3,'11111222,11111222,11111222' 
TCOON,ioos:station:TCOON:003:1,2008-02-09T01:00:00Z,26.8015,-97.4706,0.0,7.5,165.0,8.9,'11111222,11111222,11111222' 
TCOON,ioos:station:TCOON:003:1,2008-02-09T02:00:00Z,26.8015,-97.4706,0.0,6.1,166.0,7.1,'11111222,11111222,11111222' 
TCOON,ioos:station:TCOON:003:1,2008-02-09T03:00:00Z,26.8015,-97.4706,0.0,7.1,172.0,8.0,'11111222,11111222,11111222' 
TCOON,ioos:station:TCOON:003:1,2008-02-09T04:00:00Z,26.8015,-97.4706,0.0,4.6,177.0,5.4,'11111222,11111222,11111222' 
TCOON,ioos:station:TCOON:003:1,2008-02-09T05:00:00Z,26.8015,-97.4706,0.0,4.9,197.0,5.5,'11111222,11111222,11111222' 
TCOON,ioos:station:TCOON:003:1,2008-02-09T06:00:00Z,26.8015,-97.4706,0.0,4.5,195.0,5.2,'11111222,11111222,11111222' 
TCOON,ioos:station:TCOON:003:1,2008-02-09T07:00:00Z,26.8015,-97.4706,0.0,4.3,185.0,5.1,'11111222,11111222,11111222' 
TCOON,ioos:station:TCOON:003:1,2008-02-09T08:00:00Z,26.8015,-97.4706,0.0,3.3,146.0,3.6,'11111222,11111222,11111222' 
TCOON,ioos:station:TCOON:003:1,2008-02-09T09:00:00Z,26.8015,-97.4706,0.0,2.7,122.0,3.6,'11111222,11111222,11111222' 
TCOON,ioos:station:TCOON:003:1,2008-02-09T10:00:00Z,26.8015,-97.4706,0.0,5.0,144.0,5.8,'11111222,11111222,11111222' 
TCOON,ioos:station:TCOON:003:1,2008-02-09T11:00:00Z,26.8015,-97.4706,0.0,4.5,148.0,5.1,'11111222,11111222,11111222' 
TCOON,ioos:station:TCOON:003:1,2008-02-09T12:00:00Z,26.8015,-97.4706,0.0,3.9,156.0,4.5,'11111222,11111222,11111222' 
TCOON,ioos:station:TCOON:003:1,2008-02-09T13:00:00Z,26.8015,-97.4706,0.0,3.5,155.0,4.0,'11111222,11111222,11111222' 
TCOON,ioos:station:TCOON:003:1,2008-02-09T14:00:00Z,26.8015,-97.4706,0.0,2.7,156.0,3.0,'11111222,11111222,11111222' 